Regional Weather Roundup
Issued by NWS

Home | Current Version | Previous Version | Graphics & Text | Print | Product List | Glossary On
Versions: 1 2 3 4 5 6 7 8 9 10 11 12 13 14 15 16 17 18 19 20 21 22 23 24 25 26 27
000
ASUS45 KCYS 220210
RWRWY

WYOMING REGIONAL WEATHER ROUNDUP
NATIONAL WEATHER SERVICE CHEYENNE WY
800 PM MDT MON AUG 21 2017

NOTE:  "FAIR" INDICATES FEW OR NO CLOUDS BELOW 12,000 FEET
WITH NO SIGNIFICANT WEATHER AND/OR OBSTRUCTIONS TO VISIBILITY.

WYZ001-220300-
YELLOWSTONE NATIONAL PARK

CITY           SKY/WX    TMP DP  RH WIND       PRES   REMARKS
LK YELLOWSTONE   N/A     58  40  51 NW3       30.38R
W YELLOWSTONE  NOT AVBL

$$
WYZ002>013-054>058-071-098>099-220300-
NORTHERN WYOMING

CITY           SKY/WX    TMP DP  RH WIND       PRES   REMARKS
JACKSON        FAIR      69  33  26 W6        30.26S
CODY           FAIR      68  35  29 N5        30.23R
GREYBULL       FAIR      79  31  17 N9        30.11R
WORLAND        FAIR      73  42  32 NE5       30.12S
SHERIDAN       FAIR      64  44  48 W3        30.17S
BUFFALO        FAIR      70  30  22 N3        30.24S
GILLETTE       FAIR      68  33  27 NE7       30.20R
HULETT         FAIR      68  36  30 E3        30.23R
NEWCASTLE      FAIR      70  32  24 N6        30.19R

$$
WYZ014>020-022>026-101>103-220300-
CENTRAL WYOMING

CITY           SKY/WX    TMP DP  RH WIND       PRES   REMARKS
BIG PINEY      FAIR      70  28  21 N10       30.30R
PINEDALE       FAIR      68  23  18 NW6       30.31R
DUBOIS         FAIR      66  21  18 NW5       30.30R
LANDER           N/A    N/A N/A N/A MISG      30.20R
RIVERTON       FAIR      74  33  22 N15       30.19R
CASPER         FAIR      73  36  25 E14       30.21R
DOUGLAS        FAIR      66  39  37 E8        30.22R

$$
WYZ021-027>030-104>119-220300-
SOUTHERN WYOMING

CITY           SKY/WX    TMP DP  RH WIND       PRES   REMARKS
EVANSTON       FAIR      72  38  29 NW10      30.31R
KEMMERER         N/A     70  27  19 NW9       30.33R
FORT BRIDGER   FAIR      76  29  17 NW9       30.32S
ROCK SPRINGS   FAIR      76  27  16 NW8       30.25S
RAWLINS        FAIR      73  33  23 NE8       30.26R
SARATOGA       MOCLDY    72  36  26 CALM      30.28S
LARAMIE        FAIR      66  36  32 E12       30.32R
CHEYENNE       FAIR      67  46  47 E9        30.28R
TORRINGTON     FAIR      72  44  36 E14       30.16R
PINE BLUFFS    FAIR      66  43  42 NE6       30.23R

$$




USA.gov is the U.S. government's official web portal to all federal, state and local government web resources and services.